TimeMST,TemperatureF,Dew PointF,Humidity,Sea Level PressureIn,VisibilityMPH,Wind Direction,Wind SpeedMPH,Gust SpeedMPH,PrecipitationIn,Events,Conditions,WindDirDegrees,DateUTC
12:53 AM,10.0,-5.1,51,30.34,10.0,East,3.5,-,N/A,,Clear,80,2014-01-06 07:53:00
1:53 AM,8.1,-4.0,58,30.35,10.0,Calm,Calm,-,N/A,,Clear,0,2014-01-06 08:53:00
2:53 AM,8.1,-4.0,58,30.36,10.0,Calm,Calm,-,N/A,,Clear,0,2014-01-06 09:53:00
3:53 AM,5.0,-5.1,63,30.41,10.0,Calm,Calm,-,N/A,,Clear,0,2014-01-06 10:53:00
4:53 AM,5.0,-5.1,63,30.42,10.0,Calm,Calm,-,N/A,,Clear,0,2014-01-06 11:53:00
5:53 AM,3.9,-4.0,70,30.46,10.0,Calm,Calm,-,N/A,,Clear,0,2014-01-06 12:53:00
6:53 AM,5.0,-4.0,66,30.49,10.0,Calm,Calm,-,N/A,,Clear,0,2014-01-06 13:53:00
7:53 AM,8.1,-2.0,64,30.50,6.0,NW,6.9,-,N/A,,Haze,320,2014-01-06 14:53:00
8:53 AM,19.0,1.0,46,30.48,10.0,Calm,Calm,-,N/A,,Clear,0,2014-01-06 15:53:00
9:53 AM,27.0,-0.9,30,30.45,10.0,North,9.2,-,N/A,,Clear,10,2014-01-06 16:53:00
10:53 AM,33.1,-6.0,19,30.46,10.0,Calm,Calm,-,N/A,,Clear,0,2014-01-06 17:53:00
11:53 AM,35.1,-9.0,15,30.41,10.0,SW,4.6,-,N/A,,Clear,230,2014-01-06 18:53:00
12:53 PM,37.9,-4.0,17,30.37,10.0,South,4.6,-,N/A,,Clear,180,2014-01-06 19:53:00
1:53 PM,41.0,-2.0,16,30.34,10.0,SSW,4.6,-,N/A,,Clear,200,2014-01-06 20:53:00
2:53 PM,43.0,-0.9,16,30.32,10.0,Variable,3.5,-,N/A,,Clear,0,2014-01-06 21:53:00
3:53 PM,43.0,-0.0,17,30.33,10.0,SE,3.5,-,N/A,,Clear,130,2014-01-06 22:53:00
4:53 PM,39.9,-0.0,19,30.34,10.0,SSE,8.1,-,N/A,,Clear,150,2014-01-06 23:53:00
5:53 PM,35.1,-0.9,22,30.38,10.0,Variable,3.5,-,N/A,,Clear,0,2014-01-07 00:53:00
6:53 PM,28.9,-2.0,26,30.42,10.0,ESE,8.1,-,N/A,,Clear,110,2014-01-07 01:53:00
7:53 PM,24.1,-2.0,32,30.44,10.0,Calm,Calm,-,N/A,,Clear,0,2014-01-07 02:53:00
8:53 PM,21.9,-0.9,37,30.40,10.0,East,3.5,-,N/A,,Clear,90,2014-01-07 03:53:00
9:53 PM,16.0,-0.9,47,30.39,10.0,Calm,Calm,-,N/A,,Clear,0,2014-01-07 04:53:00
10:53 PM,14.0,-0.0,54,30.35,10.0,Calm,Calm,-,N/A,,Clear,0,2014-01-07 05:53:00
11:53 PM,15.1,1.0,54,30.34,10.0,Calm,Calm,-,N/A,,Clear,0,2014-01-07 06:53:00